Regional Weather Roundup
Issued by NWS

Home | Current Version | Previous Version | Text Only | Print | Product List | Glossary Off
Versions: 1 2 3 4 5 6 7 8 9 10 11 12 13 14 15 16 17 18 19 20 21 22 23 24 25 26 27 28 29 30 31 32 33 34 35 36 37 38 39 40 41 42 43 44 45 46 47 48 49 50

000
ASUS43 KDMX 270801
RWRIA

WEATHER ROUNDUP FOR IOWA
NATIONAL WEATHER SERVICE DES MOINES IA
300 AM CDT SAT MAY 27 2017

NOTE: "FAIR" INDICATES FEW OR NO CLOUDS BELOW 12,000 FEET WITH NO
SIGNIFICANT WEATHER AND/OR OBSTRUCTIONS TO VISIBILITY.

* - THESE STATIONS ARE NOT NWS STATIONS...THUS NOT UNDER NWS
QUALITY CONTROL.  THEY ALSO DO NOT REPORT WEATHER SUCH
AS PRECIPITATION OR FOG.

IAZ001>003-012>014-020>022-031>034-043>046-270900-
   NORTHWEST IOWA

CITY           SKY/WX    TMP DP  RH WIND       PRES   REMARKS
CARROLL *      PTCLDY    55  46  71 N3        29.90S
CHEROKEE *     PTCLDY    49  46  92 CALM      29.91S
DENISON *      CLOUDY    54  48  82 CALM      29.91F
LE MARS *      CLOUDY    50  48  93 CALM      29.92S
ORANGE CITY *  PTCLDY    63  43  48 NE6       29.91F
SHELDON *      PTCLDY    50  43  76 CALM      29.90F
SIOUX CITY     CLOUDY    52  47  83 NW6       29.90F
SPENCER        CLEAR     50  45  83 NW8       29.91S
STORM LAKE *   CLOUDY    54  43  66 CALM      29.91S
$$

IAZ055>058-069>071-079>083-090>094-270900-
   SOUTHWEST IOWA

CITY           SKY/WX    TMP DP  RH WIND       PRES   REMARKS
ATLANTIC *     CLOUDY    57  50  77 N5        29.89S
AUDUBON *      CLOUDY    52  46  82 CALM      29.91S
CLARINDA *     CLOUDY    61  55  82 N7        29.89S
COUNCIL BLFS * CLOUDY    59  50  72 N7        29.89S
CRESTON *      MOCLDY    63  48  59 N7        29.89S
HARLAN  *      CLOUDY    54  50  87 NE5       29.92F
LAMONI         CLOUDY    67  61  81 CALM      29.87S
RED OAK *      CLOUDY    59  52  77 NE6       29.88F
SHENANDOAH *   CLOUDY    61  55  82 NE6       29.88S
$$

IAZ047>049-059>061-072>074-084-270900-
   CENTRAL IOWA

CITY           SKY/WX    TMP DP  RH WIND       PRES   REMARKS
AMES           FOG       56  56 100 CALM      29.88R VSB 1/4
ANKENY *       FOG       57  57 100 CALM      29.89R VSB 3/4
BOONE *        CLEAR     57  54  88 N5        29.88R
CHARITON *     CLOUDY    61  59  94 S5        29.87R
DES MOINES     MOCLDY    63  60  90 NE3       29.87R
GRINNELL*        N/A     57  55  95 CALM      29.88S FOG
KNOXVILLE *    CLOUDY    61  59  94 SE5       29.85S
MARSHALLTOWN   FOG       56  56 100 CALM      29.87S VSB 1
NEWTON *       CLOUDY    59  57  94 CALM      29.87R
PELLA *        CLOUDY    59  58  96 CALM      29.88R FOG
PERRY *          N/A     59  47  63 NW6       29.89R
$$

IAZ004>006-015-016-023>025-035-036-270900-
   NORTH CENTRAL IOWA

CITY           SKY/WX    TMP DP  RH WIND       PRES   REMARKS
ALGONA *       CLEAR     54  50  87 SE3       29.91R
CLARION *      CLEAR     57  50  77 N6        29.89S
ESTHERVILLE    CLEAR     52  47  83 NW7       29.90R
FORT DODGE *   CLEAR     52  45  76 CALM      29.90S
MASON CITY     CLEAR     53  47  79 W7        29.90R
FOREST CITY *    N/A     48  37  66 CALM      29.89S
WEBSTER CITY * CLEAR     57  48  72 NW5       29.88R
$$

IAZ007>011-017>019-026>030-037>042-050>054-066-270900-
   NORTHEAST IOWA

CITY           SKY/WX    TMP DP  RH WIND       PRES   REMARKS
CEDAR RAPIDS   FOG       53  53 100 CALM      29.86S VSB 1/4
CHARLES CITY * CLEAR     55  55 100 S6        29.88S FOG
CLINTON *      CLOUDY    58  57  97 E5        29.87F FOG
DECORAH *      CLOUDY    57  57 100 CALM      29.87F
DUBUQUE        CLEAR     53  52  96 CALM      29.88S FOG
MONTICELLO *   FOG       52  52 100 CALM      29.87S VSB 1/4
OELWEIN *      FOG       57  57 100 CALM      29.89S VSB<1/4
WATERLOO       FOG       51  50  96 E3        29.88R VSB 1/4
$$

IAZ064-065-067-068-078-270900-
   EAST CENTRAL IOWA

CITY           SKY/WX    TMP DP  RH WIND       PRES   REMARKS
DAVENPORT      CLOUDY    58  56  93 E8        29.86F
IOWA CITY      FOG       54  53  97 CALM      29.87S VSB 3/4
MT. PLEASANT * FOG       55  55 100 CALM      29.87S VSB 1/4
MUSCATINE *    FOG       54  54 100 CALM      29.86S VSB<1/4
QUAD CITIES    CLOUDY    59  56  89 E8        29.86F FOG
$$

IAZ062-063-075>077-085>089-095>099-270900-
   SOUTHEAST IOWA

CITY           SKY/WX    TMP DP  RH WIND       PRES   REMARKS
BURLINGTON     FOG       59  59 100 CALM      29.86S VSB 1/4
FAIRFIELD *    FOG       57  57 100 SE3       29.86R VSB 1/4
FORT MADISON * FOG       59  59 100 CALM      29.87S VSB 3/4
KEOKUK *       CLEAR     57  57 100 CALM      29.86R FOG
OSKALOOSA *      N/A     58  56  96 CALM      29.87R FOG
OTTUMWA        CLOUDY    58  58 100 S5        29.86R FOG
WASHINGTON *   FOG       55  55 100 CALM      29.87S VSB<1/4
$$

ABBREVIATIONS USED IN REMARKS
   TC - TEMPERATURES IN CELSIUS
  WCI - WIND CHILL INDEX
   HX - HEAT INDEX
  VSB - VISIBILITY
$$





USA.gov is the U.S. government's official web portal to all federal, state and local government web resources and services.